Location: Burland Observatory
(39.4088°N, 105.4217°W)
Time: 11:36:14
(UTC-07:00)

Vanguard 3 - Pass Details

Date: 09 December 2019
Orbit: 508 x 3263 km, 33.3° (Epoch: 19 January)

Event Time Altitude Azimuth Distance (km) Brightness Sun altitude
Rises 06:33:43 0° 208° (SSW) 3,460 10.4 -7.1°
Reaches altitude 10° 06:36:16 10° 194° (SSW) 2,810 10.1 -6.6°
Maximum altitude 06:41:55 26° 140° (SE) 2,462 10.5 -5.6°
Drops below altitude 10° 06:50:31 10° 90° (E) 4,438 12.1 -4.1°
Sets 06:55:49 0° 81° (E) 5,961 12.5 -3.2°
